TimeEDT,TemperatureF,Dew PointF,Humidity,Sea Level PressureIn,VisibilityMPH,Wind Direction,Wind SpeedMPH,Gust SpeedMPH,PrecipitationIn,Events,Conditions,WindDirDegrees,DateUTC
12:51 AM,70.0,57.0,63,30.12,10.0,ENE,3.5,-,N/A,,Overcast,60,2013-08-11 04:51:00
1:51 AM,69.1,57.0,65,30.11,10.0,NNE,5.8,-,N/A,,Overcast,20,2013-08-11 05:51:00
2:51 AM,66.9,55.0,66,30.11,10.0,North,3.5,-,N/A,,Overcast,10,2013-08-11 06:51:00
3:51 AM,66.9,54.0,63,30.12,10.0,NNE,5.8,-,N/A,,Overcast,20,2013-08-11 07:51:00
4:51 AM,66.0,55.0,68,30.12,10.0,NNE,4.6,-,N/A,,Overcast,30,2013-08-11 08:51:00
5:51 AM,64.9,54.0,68,30.13,10.0,Calm,Calm,-,N/A,,Mostly Cloudy,0,2013-08-11 09:51:00
6:51 AM,64.0,54.0,70,30.14,10.0,NE,3.5,-,N/A,,Mostly Cloudy,40,2013-08-11 10:51:00
7:51 AM,64.0,55.0,73,30.13,10.0,ENE,3.5,-,N/A,,Mostly Cloudy,60,2013-08-11 11:51:00
8:51 AM,68.0,55.0,63,30.15,10.0,NNE,6.9,-,N/A,,Mostly Cloudy,20,2013-08-11 12:51:00
9:51 AM,68.0,55.0,63,30.15,10.0,Variable,3.5,-,N/A,,Mostly Cloudy,0,2013-08-11 13:51:00
10:51 AM,73.0,54.0,51,30.15,10.0,East,9.2,-,N/A,,Scattered Clouds,90,2013-08-11 14:51:00
11:51 AM,73.0,54.0,51,30.14,10.0,East,4.6,-,N/A,,Overcast,100,2013-08-11 15:51:00
12:51 PM,75.9,55.9,50,30.12,10.0,ESE,4.6,-,N/A,,Mostly Cloudy,120,2013-08-11 16:51:00
1:51 PM,77.0,59.0,54,30.11,10.0,South,3.5,-,N/A,,Scattered Clouds,170,2013-08-11 17:51:00
2:51 PM,81.0,60.1,49,30.09,10.0,Calm,Calm,-,N/A,,Scattered Clouds,0,2013-08-11 18:51:00
3:51 PM,81.0,61.0,50,30.06,10.0,Variable,5.8,-,N/A,,Scattered Clouds,0,2013-08-11 19:51:00
4:51 PM,82.0,62.1,51,30.05,10.0,NNE,3.5,-,N/A,,Scattered Clouds,20,2013-08-11 20:51:00
5:51 PM,80.1,62.1,54,30.05,10.0,NNW,8.1,-,N/A,,Mostly Cloudy,340,2013-08-11 21:51:00
6:51 PM,77.0,64.0,64,30.05,10.0,North,4.6,-,0.00,,Mostly Cloudy,10,2013-08-11 22:51:00
7:51 PM,73.9,66.0,76,30.06,10.0,WSW,3.5,-,0.00,,Mostly Cloudy,240,2013-08-11 23:51:00
8:51 PM,75.9,64.0,67,30.06,10.0,North,4.6,-,N/A,,Mostly Cloudy,360,2013-08-12 00:51:00
9:51 PM,75.0,63.0,66,30.07,10.0,Calm,Calm,-,N/A,,Mostly Cloudy,0,2013-08-12 01:51:00
10:51 PM,72.0,64.0,76,30.07,10.0,Calm,Calm,-,N/A,,Mostly Cloudy,0,2013-08-12 02:51:00
11:51 PM,70.0,66.9,90,30.07,8.0,Calm,Calm,-,N/A,,Partly Cloudy,0,2013-08-12 03:51:00